Home > Weather > Pirassununga > Past weeks

Flag for Brazil Past Weather in Pirassununga, São Paulo, Brazil — Yesterday and Last 2 Weeks

Now
72 °F

Clear.


Feels Like: 77 °F
Forecast: N/A
Wind: 5 mph from West

Location: Pirassununga Airport

Current Time: Jul 27, 2016 at 8:10:18 PM

Latest Report: Jul 27, 2016 at 7:00 PM


Visibility: 10 mi

Pressure: 30.07 "Hg (27.95 "Hg at 632m altitude)

Humidity: 47%

Dew Point: 50 °F

Location of PirassunungaLocation

Past Weather in Pirassununga — Graph

°F

Pirassununga Temperature Yesterday

Maximum temperature yesterday: 86 °F (at 3:00 PM)
Minimum temperature yesterday: 48 °F (at 6:00 AM)
Average temperature yesterday: 71 °F

High & Low Weather Summary for the Past Weeks

 TemperatureHumidityPressure
High88 °F (Jul 13, 3:00 PM)100% (Jul 17, 6:00 AM)30.24 "Hg (Jul 17, 6:00 AM)
Low34 °F (Jul 18, 7:00 AM)22% (Jul 14, 2:00 PM)29.92 "Hg (Jul 15, 4:00 PM)
Average65 °F63%30.11 "Hg
* Reported Jul 12 6:00 PM — Jul 27 6:00 PM, Pirassununga, Weather by CustomWeather, © 2016

Note: Actual official high and low records may vary slightly from our data, if they occured in-between our weather recording intervals... More about our weather records

Advertising

Pirassununga Weather History for the Previous 24 Hours

Scroll right to see more
 ConditionsComfort  
Time TempWeatherWind HumidityBarometerVisibility
6:00 PM
Wed, Jul 27
77 °FClear.3 mph36%30.07 "Hg10 mi
5:00 PM84 °FPassing clouds.7 mph27%30.04 "HgN/A
4:00 PM86 °FScattered clouds.12 mph25%30.04 "HgN/A
3:00 PM88 °FScattered clouds.12 mph25%30.04 "HgN/A
2:00 PM86 °FPassing clouds.13 mph27%30.07 "HgN/A
1:00 PM86 °FSunny.12 mph29%30.07 "Hg10 mi
11:00 AM81 °FSunny.8 mph37%30.12 "Hg10 mi
10:00 AM72 °FSunny.2 mph53%30.15 "Hg10 mi
9:00 AM63 °FPartly sunny.1 mph73%30.12 "HgN/A
8:00 AM57 °FScattered clouds.No wind82%30.12 "HgN/A
7:00 AM48 °FSunny.2 mph94%30.09 "Hg10 mi
6:00 AM50 °FSunny.1 mph94%30.09 "Hg10 mi
11:00 PM
Tue, Jul 26
59 °FClear.9 mph77%30.12 "Hg10 mi
10:00 PM61 °FClear.No wind77%30.09 "Hg10 mi
9:00 PM63 °FClear.2 mph68%30.09 "Hg10 mi
8:00 PM64 °FClear.3 mph64%30.09 "Hg10 mi
Weather by CustomWeather, © 2016

See weather overviewHow to use our weather pages